This demonstration page uses our WeatherBlox Daily Observations layout. Learn more.

Left ArrowRight Arrow

34.02893, -84.19858

Hourly Observations for August 14, 2015

Temp ( °F °C ) Dew Point ( °F °C ) Humidity (%) Winds ( mph kmh ) Pressure ( in mb ) Visibility ( mi km ) Precip ( " mm )
12:53 am 00:53 Cloudy 74 23.3 71 21.7 91 91 Calm 30.03 1017 9 14 0.00 0.00
1:53 am 01:53 Clear 73 22.8 70 21.1 90 90 Calm 30.03 1017 9 14 0.00 0.00
2:53 am 02:53 Mostly Cloudy 73 22.8 70 21.1 90 90 Calm 30.03 1017 9 14 0.00 0.00
3:53 am 03:53 Clear 71 21.7 70 21.1 96 96 Calm 30.03 1017 7 11 0.00 0.00
4:53 am 04:53 Cloudy 72 22.2 70 21.1 94 94 Calm 30.06 1018 9 14 0.00 0.00
5:53 am 05:53 Mostly Cloudy 71 21.7 69 20.6 94 94 Calm 30.08 1019 9 14 0.00 0.00
6:53 am 06:53 Cloudy 71 21.7 69 20.6 94 94 E 5 7 30.10 1019 9 14 0.00 0.00
7:19 am 07:19 Cloudy 71 21.7 69 20.6 94 94 ESE 3 6 30.12 1020 7 11 0.00 0.00
7:53 am 07:53 Cloudy 72 22.2 69 20.6 91 91 E 3 6 30.10 1019 8 13 0.00 0.00
8:00 am 08:00 Mostly Cloudy 72 22.2 69 20.6 91 91 E 3 6 30.12 1020 8 13 0.00 0.00
8:07 am 08:07 Mostly Cloudy 72 22.2 69 20.6 91 91 ESE 3 6 30.12 1020 8 13 0.00 0.00
8:53 am 08:53 Mostly Cloudy 74 23.3 72 22.2 94 94 SE 8 13 30.12 1020 8 13 0.00 0.00
9:17 am 09:17 Mostly Cloudy 75 23.9 73 22.8 94 94 Calm 30.15 1021 7 11 0.00 0.00
9:53 am 09:53 Mostly Cloudy 78 25.6 73 22.8 85 85 E 3 6 30.12 1020 9 14 0.00 0.00
10:00 am 10:00 Mostly Sunny 79 26 73 23 84 84 VRB 5 7 30.12 1020 9 14 0.00 0.00
10:08 am 10:08 Partly Cloudy 79 26 72 22 79 79 VRB 6 9 30.12 1020 10 16 0.00 0.00
10:53 am 10:53 Partly Cloudy 82 27.8 70 21.1 67 67 VRB 3 6 30.13 1020 10 16 0.00 0.00
11:53 am 11:53 Sunny 84 28.9 65 18.3 53 53 E 9 15 30.13 1020 10 16 0.00 0.00
12:53 pm 12:53 Sunny 85 29.4 63 17.2 48 48 SE 9 15 30.12 1020 10 16 0.00 0.00
1:53 pm 13:53 Sunny 86 30 61 16.1 43 43 ESE 7 11 30.09 1019 10 16 0.00 0.00
2:53 pm 14:53 Sunny 88 31.1 63 17.2 43 43 ESE 7 11 30.08 1019 10 16 0.00 0.00
2:59 pm 14:59 Sunny 88 31 63 17 43 43 E 13 20 30.09 1019 10 16 0.00 0.00
3:53 pm 15:53 Sunny 87 30.6 61 16.1 42 42 VRB 6 9 30.06 1018 10 16 0.00 0.00
4:53 pm 16:53 Sunny 89 31.7 64 17.8 43 43 Calm 30.04 1017 10 16 0.00 0.00
5:53 pm 17:53 Sunny 87 30.6 63 17.2 45 45 VRB 5 7 30.05 1018 10 16 0.00 0.00
6:53 pm 18:53 Mostly Sunny 86 30 64 17.8 48 48 E 5 7 30.04 1017 10 16 0.00 0.00
7:53 pm 19:53 Sunny 83 28.3 64 17.8 53 53 Calm 30.05 1018 10 16 0.00 0.00
8:53 pm 20:53 Clear 81 27.2 65 18.3 58 58 E 3 6 30.06 1018 10 16 0.00 0.00
9:53 pm 21:53 Mostly Clear 79 26.1 64 17.8 60 60 E 3 6 30.07 1018 10 16 0.00 0.00
10:53 pm 22:53 Clear 77 25 64 17.8 64 64 Calm 30.09 1019 10 16 0.00 0.00
11:53 pm 23:53 Clear 76 24.4 64 17.8 67 67 Calm 30.09 1019 10 16 0.00 0.00

Powered by AerisWeather